Location: *
(51.1248°S, 108.4023°W)
Time: 01:00:10
(UTC+00:00)

NOAA 11 - Visible Passes

Search period start: 24 October 2021 00:00
Search period end: 03 November 2021 00:00
Orbit: 833 x 850 km, 98.4° (Epoch: 23 October)

Date Brightness Start Highest point End Pass type
(mag) Time Alt. Az. Time Alt. Az. Time Alt. Az.
24 Oct 7.4 03:08:17 10° SSW 03:11:47 17° SW 03:15:17 10° W visible
24 Oct 7.7 09:40:41 10° ESE 09:42:32 12° SE 09:44:22 10° SSE visible
24 Oct 5.4 11:16:34 10° NE 11:21:51 50° ESE 11:27:13 10° S visible
25 Oct 7.2 02:53:22 10° S 02:57:26 21° SW 03:01:29 10° WNW visible
25 Oct 5.9 11:02:17 10° NE 11:07:22 40° ESE 11:12:33 10° S visible
26 Oct 6.9 02:38:32 10° S 02:43:03 26° WSW 02:47:33 10° WNW visible
26 Oct 6.3 10:48:06 10° ENE 10:52:56 32° ESE 10:57:49 10° S visible
27 Oct 6.7 10:34:01 10° ENE 10:38:31 26° ESE 10:43:04 10° S visible
28 Oct 7.1 10:20:03 10° ENE 10:24:07 22° SE 10:28:14 10° S visible
29 Oct 7.9 03:37:18 10° SSW 03:39:02 11° SW 03:40:47 10° WSW visible
29 Oct 7.3 10:06:14 10° E 10:09:46 18° SE 10:13:20 10° SSE visible
30 Oct 7.6 03:21:57 10° SSW 03:24:45 14° SW 03:27:32 10° W visible
30 Oct 7.5 09:52:36 10° E 09:55:26 14° SE 09:58:18 10° SSE visible
31 Oct 7.4 03:06:54 10° SSW 03:10:25 17° SW 03:13:55 10° W visible
31 Oct 7.7 09:39:17 10° ESE 09:41:08 12° SE 09:42:59 10° SSE visible
01 Nov 7.3 02:51:59 10° S 02:56:04 21° SW 03:00:07 10° WNW visible
02 Nov 6.4 10:46:42 10° ENE 10:51:32 32° ESE 10:56:27 10° S visible
